User: anonymous   Login
Location: Vienna
(48.2082°N, 16.3738°E)
Time: 18:53:29
(UTC+01:00)
Language:

ISS - Orbit

View from above orbital plane
View from above orbital plane
View from above satellite
View from above satellite

Ground track
Ground track

The orbit data is extracted from the following two-line orbital elements,

1 25544U 98067A   20019.55665603  .00016717  00000-0  10270-3 0  9027
2 25544  51.6411   8.8345 0004664 148.2958 211.8473 15.49598657  8817
Epoch (UTC): 19 January 2020 13:21:35
Eccentricity: 0.0004664
inclination: 51.6411°
perigee height: 415 km
apogee height: 421 km
right ascension of ascending node: 8.8345°
argument of perigee: 148.2958°
revolutions per day: 15.49598657
mean anomaly at epoch: 211.8473°
orbit number at epoch: 881

The dashed part of the orbit path shows where the satellite is in the earth's shadow,  

DLR